User: anonymous   Login
Location: Unspecified
(0.0000°N, 0.0000°E)
Time: 21:17:20
(UTC+00:00)
Language:

OBJECT PK - Orbit

View from above orbital plane
View from above orbital plane
View from above satellite
View from above satellite

Ground track
Ground track

The orbit data is extracted from the following two-line orbital elements,

1 43598U 98067PK  19046.91137751 +.00012258 +00000-0 +16311-3 0  9996
2 43598 051.6370 240.7934 0003400 028.7360 331.3820 15.58593402028681
Epoch (UTC): 15 February 2019 21:52:23
Eccentricity: 0.0003400
inclination: 51.6370°
perigee height: 389 km
apogee height: 394 km
right ascension of ascending node: 240.7934°
argument of perigee: 28.7360°
revolutions per day: 15.58593402
mean anomaly at epoch: 331.3820°
orbit number at epoch: 2868

The dashed part of the orbit path shows where the satellite is in the earth's shadow,  

DLR